Time,TemperatureF,DewpointF,PressureIn,WindDirection,WindDirectionDegrees,WindSpeedMPH,WindSpeedGustMPH,Humidity,HourlyPrecipIn,Conditions,Clouds,dailyrainin,SoftwareType,DateUTC
2013-02-06 00:02:00,39.0,32.0,30.10,NW,314,4.0,-999.0,77,-99.99,,,-99.99,,2013-02-06 05:02:00,
2013-02-06 00:12:00,39.0,32.0,30.10,NW,314,4.0,-999.0,77,-99.99,,,-99.99,,2013-02-06 05:12:00,
2013-02-06 00:22:00,38.0,32.0,30.10,NNE,15,2.0,-999.0,80,-99.99,,,-99.99,,2013-02-06 05:22:00,
2013-02-06 00:32:00,39.0,33.0,30.10,NW,315,7.0,-999.0,79,-99.99,,,-99.99,,2013-02-06 05:32:00,
2013-02-06 00:42:00,39.0,33.0,30.10,NW,315,7.0,-999.0,79,-99.99,,,-99.99,,2013-02-06 05:42:00,
2013-02-06 00:53:00,40.0,34.0,30.10,NW,313,5.0,-999.0,79,-99.99,,,-99.99,,2013-02-06 05:53:00,
2013-02-06 01:01:00,40.0,34.0,30.10,NW,313,5.0,-999.0,79,-99.99,,,-99.99,,2013-02-06 06:01:00,
2013-02-06 01:11:00,40.0,34.0,30.10,NW,313,5.0,-999.0,79,-99.99,,,-99.99,,2013-02-06 06:11:00,
2013-02-06 01:22:00,41.0,34.0,30.11,WNW,292,6.0,-999.0,75,-99.99,,,-99.99,,2013-02-06 06:22:00,
2013-02-06 01:32:00,41.0,33.0,30.11,NW,311,5.0,-999.0,73,-99.99,,,-99.99,,2013-02-06 06:32:00,
2013-02-06 01:42:00,41.0,33.0,30.11,NW,311,5.0,-999.0,73,-99.99,,,-99.99,,2013-02-06 06:42:00,
2013-02-06 01:51:00,40.0,33.0,30.11,NW,311,6.0,-999.0,75,-99.99,,,-99.99,,2013-02-06 06:51:00,
2013-02-06 02:02:00,40.0,33.0,30.11,NNW,327,6.0,-999.0,76,-99.99,,,-99.99,,2013-02-06 07:02:00,
2013-02-06 02:11:00,40.0,33.0,30.11,NNW,327,6.0,-999.0,76,-99.99,,,-99.99,,2013-02-06 07:11:00,
2013-02-06 02:22:00,40.0,33.0,30.11,NW,317,8.0,-999.0,76,-99.99,,,-99.99,,2013-02-06 07:22:00,
2013-02-06 02:32:00,40.0,33.0,30.12,NW,309,5.0,-999.0,76,-99.99,,,-99.99,,2013-02-06 07:32:00,
2013-02-06 02:42:00,40.0,33.0,30.12,NW,309,5.0,-999.0,76,-99.99,,,-99.99,,2013-02-06 07:42:00,
2013-02-06 02:51:00,40.0,33.0,30.12,WNW,284,7.0,-999.0,76,-99.99,,,-99.99,,2013-02-06 07:51:00,
2013-02-06 03:01:00,39.0,32.0,30.13,WNW,282,5.0,-999.0,77,-99.99,,,-99.99,,2013-02-06 08:01:00,
2013-02-06 03:11:00,39.0,32.0,30.13,WNW,282,5.0,-999.0,77,-99.99,,,-99.99,,2013-02-06 08:11:00,
2013-02-06 03:21:00,39.0,32.0,30.14,WNW,300,3.0,-999.0,77,-99.99,,,-99.99,,2013-02-06 08:21:00,
2013-02-06 03:32:00,38.0,32.0,30.14,WNW,298,1.0,-999.0,79,-99.99,,,-99.99,,2013-02-06 08:32:00,
2013-02-06 03:42:00,38.0,32.0,30.14,WNW,298,1.0,-999.0,79,-99.99,,,-99.99,,2013-02-06 08:42:00,
2013-02-06 03:53:00,36.0,31.0,30.14,NW,316,5.0,-999.0,82,-99.99,,,-99.99,,2013-02-06 08:53:00,
2013-02-06 04:02:00,37.0,32.0,30.13,West,266,9.0,-999.0,82,-99.99,,,-99.99,,2013-02-06 09:02:00,
2013-02-06 04:11:00,37.0,32.0,30.13,West,266,9.0,-999.0,82,-99.99,,,-99.99,,2013-02-06 09:11:00,
2013-02-06 04:21:00,37.0,31.0,30.14,West,279,12.0,-999.0,80,-99.99,,,-99.99,,2013-02-06 09:21:00,
2013-02-06 04:32:00,37.0,31.0,30.14,WNW,300,14.0,-999.0,79,-99.99,,,-99.99,,2013-02-06 09:32:00,
2013-02-06 04:42:00,37.0,31.0,30.14,WNW,300,14.0,-999.0,79,-99.99,,,-99.99,,2013-02-06 09:42:00,
2013-02-06 04:52:00,37.0,31.0,30.15,WNW,290,13.0,-999.0,79,-99.99,,,-99.99,,2013-02-06 09:52:00,
2013-02-06 05:01:00,37.0,31.0,30.15,NNW,344,13.0,-999.0,79,-99.99,,,-99.99,,2013-02-06 10:01:00,
2013-02-06 05:11:00,37.0,31.0,30.15,NNW,344,13.0,-999.0,79,-99.99,,,-99.99,,2013-02-06 10:11:00,
2013-02-06 05:22:00,37.0,31.0,30.16,WNW,287,11.0,-999.0,78,-99.99,,,-99.99,,2013-02-06 10:22:00,
2013-02-06 05:32:00,36.0,30.0,30.16,WNW,288,9.0,-999.0,79,-99.99,,,-99.99,,2013-02-06 10:32:00,
2013-02-06 05:42:00,36.0,30.0,30.16,WNW,288,9.0,-999.0,79,-99.99,,,-99.99,,2013-02-06 10:42:00,
2013-02-06 05:52:00,36.0,30.0,30.17,NW,319,10.0,-999.0,79,-99.99,,,-99.99,,2013-02-06 10:52:00,
2013-02-06 06:01:00,36.0,30.0,30.18,NW,317,8.0,-999.0,78,-99.99,,,-99.99,,2013-02-06 11:01:00,
2013-02-06 06:11:00,36.0,30.0,30.18,NW,317,8.0,-999.0,78,-99.99,,,-99.99,,2013-02-06 11:11:00,
2013-02-06 06:22:00,36.0,30.0,30.19,NNW,336,7.0,-999.0,79,-99.99,,,-99.99,,2013-02-06 11:22:00,
2013-02-06 06:32:00,36.0,30.0,30.20,WNW,290,10.0,-999.0,79,-99.99,,,-99.99,,2013-02-06 11:32:00,
2013-02-06 06:42:00,36.0,30.0,30.20,WNW,290,10.0,-999.0,79,-99.99,,,-99.99,,2013-02-06 11:42:00,
2013-02-06 06:52:00,35.0,29.0,30.20,NW,321,8.0,-999.0,79,-99.99,,,-99.99,,2013-02-06 11:52:00,
2013-02-06 07:02:00,35.0,29.0,30.20,NW,317,11.0,-999.0,80,-99.99,,,-99.99,,2013-02-06 12:02:00,
2013-02-06 07:12:00,35.0,29.0,30.20,NW,317,11.0,-999.0,80,-99.99,,,-99.99,,2013-02-06 12:12:00,
2013-02-06 07:22:00,35.0,29.0,30.21,NW,310,9.0,-999.0,80,-99.99,,,-99.99,,2013-02-06 12:22:00,
2013-02-06 07:32:00,34.0,29.0,30.22,WNW,302,8.0,-999.0,81,-99.99,,,-99.99,,2013-02-06 12:32:00,
2013-02-06 07:42:00,34.0,29.0,30.22,WNW,302,8.0,-999.0,81,-99.99,,,-99.99,,2013-02-06 12:42:00,
2013-02-06 07:52:00,34.0,29.0,30.22,NNW,342,7.0,-999.0,81,-99.99,,,-99.99,,2013-02-06 12:52:00,
2013-02-06 08:02:00,33.0,28.0,30.24,NW,309,4.0,-999.0,82,-99.99,,,-99.99,,2013-02-06 13:02:00,
2013-02-06 08:12:00,33.0,28.0,30.24,NW,309,4.0,-999.0,82,-99.99,,,-99.99,,2013-02-06 13:12:00,
2013-02-06 08:22:00,33.0,28.0,30.25,West,278,8.0,-999.0,82,-99.99,,,-99.99,,2013-02-06 13:22:00,
2013-02-06 08:32:00,34.0,29.0,30.25,NW,312,8.0,-999.0,81,-99.99,,,-99.99,,2013-02-06 13:32:00,
2013-02-06 08:42:00,34.0,29.0,30.25,NW,312,8.0,-999.0,81,-99.99,,,-99.99,,2013-02-06 13:42:00,
2013-02-06 08:52:00,34.0,28.0,30.26,NW,326,9.0,-999.0,80,-99.99,,,-99.99,,2013-02-06 13:52:00,
2013-02-06 09:02:00,35.0,29.0,30.27,West,275,10.0,-999.0,79,-99.99,,,-99.99,,2013-02-06 14:02:00,
2013-02-06 09:11:00,35.0,29.0,30.27,West,275,10.0,-999.0,79,-99.99,,,-99.99,,2013-02-06 14:11:00,
2013-02-06 09:22:00,35.0,29.0,30.27,WNW,296,9.0,-999.0,78,-99.99,,,-99.99,,2013-02-06 14:22:00,
2013-02-06 09:32:00,35.0,29.0,30.29,NNW,331,11.0,-999.0,77,-99.99,,,-99.99,,2013-02-06 14:32:00,
2013-02-06 09:42:00,35.0,29.0,30.29,NNW,331,11.0,-999.0,77,-99.99,,,-99.99,,2013-02-06 14:42:00,
2013-02-06 09:52:00,36.0,29.0,30.29,NW,321,7.0,-999.0,76,-99.99,,,-99.99,,2013-02-06 14:52:00,
2013-02-06 10:02:00,36.0,29.0,30.30,West,259,9.0,-999.0,74,-99.99,,,-99.99,,2013-02-06 15:02:00,
2013-02-06 10:11:00,36.0,29.0,30.30,West,259,9.0,-999.0,74,-99.99,,,-99.99,,2013-02-06 15:11:00,
2013-02-06 10:21:00,36.0,28.0,30.30,NNW,348,9.0,-999.0,73,-99.99,,,-99.99,,2013-02-06 15:21:00,
2013-02-06 10:32:00,37.0,28.0,30.30,WNW,291,9.0,-999.0,71,-99.99,,,-99.99,,2013-02-06 15:32:00,
2013-02-06 10:42:00,37.0,28.0,30.30,WNW,291,9.0,-999.0,71,-99.99,,,-99.99,,2013-02-06 15:42:00,
2013-02-06 10:52:00,38.0,28.0,30.31,NNW,338,8.0,-999.0,68,-99.99,,,-99.99,,2013-02-06 15:52:00,
2013-02-06 11:01:00,39.0,28.0,30.32,NNW,340,10.0,-999.0,65,-99.99,,,-99.99,,2013-02-06 16:01:00,
2013-02-06 11:11:00,39.0,28.0,30.32,NNW,340,10.0,-999.0,65,-99.99,,,-99.99,,2013-02-06 16:11:00,
2013-02-06 11:21:00,39.0,28.0,30.32,WNW,293,8.0,-999.0,64,-99.99,,,-99.99,,2013-02-06 16:21:00,
2013-02-06 11:32:00,40.0,29.0,30.31,West,267,9.0,-999.0,64,-99.99,,,-99.99,,2013-02-06 16:32:00,
2013-02-06 11:42:00,40.0,29.0,30.31,West,267,9.0,-999.0,64,-99.99,,,-99.99,,2013-02-06 16:42:00,
2013-02-06 11:52:00,41.0,29.0,30.32,West,281,7.0,-999.0,62,-99.99,,,-99.99,,2013-02-06 16:52:00,
2013-02-06 12:02:00,41.0,28.0,30.32,NNE,19,8.0,-999.0,60,-99.99,,,-99.99,,2013-02-06 17:02:00,
2013-02-06 12:12:00,41.0,28.0,30.32,NNE,19,8.0,-999.0,60,-99.99,,,-99.99,,2013-02-06 17:12:00,
2013-02-06 12:22:00,42.0,27.0,30.32,WNW,284,8.0,-999.0,56,-99.99,,,-99.99,,2013-02-06 17:22:00,
2013-02-06 12:42:00,42.0,28.0,30.32,NW,319,9.0,-999.0,57,-99.99,,,-99.99,,2013-02-06 17:42:00,
2013-02-06 12:52:00,43.0,27.0,30.32,WNW,296,8.0,-999.0,53,-99.99,,,-99.99,,2013-02-06 17:52:00,
2013-02-06 13:02:00,44.0,28.0,30.32,NW,315,8.0,-999.0,53,-99.99,,,-99.99,,2013-02-06 18:02:00,
2013-02-06 13:11:00,45.0,27.0,30.31,WNW,302,6.0,-999.0,50,-99.99,,,-99.99,,2013-02-06 18:11:00,
2013-02-06 13:23:00,45.0,27.0,30.31,WNW,302,6.0,-999.0,50,-99.99,,,-99.99,,2013-02-06 18:23:00,
2013-02-06 13:32:00,45.0,26.0,30.31,NW,311,6.0,-999.0,47,-99.99,,,-99.99,,2013-02-06 18:32:00,
2013-02-06 13:42:00,45.0,26.0,30.31,NW,311,6.0,-999.0,47,-99.99,,,-99.99,,2013-02-06 18:42:00,
2013-02-06 13:52:00,45.0,25.0,30.31,WNW,286,10.0,-999.0,45,-99.99,,,-99.99,,2013-02-06 18:52:00,
2013-02-06 14:02:00,46.0,24.0,30.30,NW,313,7.0,-999.0,42,-99.99,,,-99.99,,2013-02-06 19:02:00,
2013-02-06 14:11:00,46.0,24.0,30.30,NW,313,7.0,-999.0,42,-99.99,,,-99.99,,2013-02-06 19:11:00,
2013-02-06 14:21:00,46.0,24.0,30.30,North,360,9.0,-999.0,41,-99.99,,,-99.99,,2013-02-06 19:21:00,
2013-02-06 14:32:00,47.0,23.0,30.30,NNW,340,8.0,-999.0,38,-99.99,,,-99.99,,2013-02-06 19:32:00,
2013-02-06 14:42:00,47.0,23.0,30.30,NNW,340,8.0,-999.0,38,-99.99,,,-99.99,,2013-02-06 19:42:00,
2013-02-06 14:52:00,46.0,24.0,30.30,WNW,300,9.0,-999.0,42,-99.99,,,-99.99,,2013-02-06 19:52:00,
2013-02-06 15:01:00,47.0,22.0,30.31,WNW,287,9.0,-999.0,37,-99.99,,,-99.99,,2013-02-06 20:01:00,
2013-02-06 15:11:00,47.0,21.0,30.30,NNW,329,9.0,-999.0,35,-99.99,,,-99.99,,2013-02-06 20:11:00,
2013-02-06 15:21:00,47.0,21.0,30.30,NNW,329,9.0,-999.0,35,-99.99,,,-99.99,,2013-02-06 20:21:00,
2013-02-06 15:32:00,47.0,20.0,30.30,WNW,287,8.0,-999.0,34,-99.99,,,-99.99,,2013-02-06 20:32:00,
2013-02-06 15:42:00,47.0,20.0,30.30,WNW,287,8.0,-999.0,34,-99.99,,,-99.99,,2013-02-06 20:42:00,
2013-02-06 15:52:00,47.0,23.0,30.30,NNW,340,8.0,-999.0,39,-99.99,,,-99.99,,2013-02-06 20:52:00,
2013-02-06 16:02:00,47.0,20.0,30.31,NW,309,8.0,-999.0,34,-99.99,,,-99.99,,2013-02-06 21:02:00,
2013-02-06 16:11:00,47.0,20.0,30.31,NW,309,8.0,-999.0,34,-99.99,,,-99.99,,2013-02-06 21:11:00,
2013-02-06 16:21:00,47.0,20.0,30.31,NW,309,8.0,-999.0,34,-99.99,,,-99.99,,2013-02-06 21:21:00,
2013-02-06 16:32:00,47.0,21.0,30.31,WNW,290,8.0,-999.0,35,-99.99,,,-99.99,,2013-02-06 21:32:00,
2013-02-06 16:42:00,47.0,21.0,30.31,WNW,290,8.0,-999.0,35,-99.99,,,-99.99,,2013-02-06 21:42:00,
2013-02-06 16:52:00,47.0,21.0,30.32,NNW,339,8.0,-999.0,35,-99.99,,,-99.99,,2013-02-06 21:52:00,
2013-02-06 17:01:00,47.0,21.0,30.32,North,355,7.0,-999.0,35,-99.99,,,-99.99,,2013-02-06 22:01:00,
2013-02-06 17:11:00,47.0,21.0,30.32,North,355,7.0,-999.0,35,-99.99,,,-99.99,,2013-02-06 22:11:00,
2013-02-06 17:22:00,46.0,21.0,30.32,NW,321,6.0,-999.0,36,-99.99,,,-99.99,,2013-02-06 22:22:00,
2013-02-06 17:32:00,46.0,21.0,30.32,NW,320,5.0,-999.0,37,-99.99,,,-99.99,,2013-02-06 22:32:00,
2013-02-06 17:42:00,46.0,21.0,30.32,NW,320,5.0,-999.0,37,-99.99,,,-99.99,,2013-02-06 22:42:00,
2013-02-06 17:52:00,45.0,21.0,30.33,NW,308,5.0,-999.0,38,-99.99,,,-99.99,,2013-02-06 22:52:00,
2013-02-06 18:01:00,45.0,20.0,30.32,WNW,296,4.0,-999.0,36,-99.99,,,-99.99,,2013-02-06 23:01:00,
2013-02-06 18:11:00,45.0,20.0,30.32,WNW,296,4.0,-999.0,36,-99.99,,,-99.99,,2013-02-06 23:11:00,
2013-02-06 18:21:00,43.0,20.0,30.33,NNW,333,3.0,-999.0,39,-99.99,,,-99.99,,2013-02-06 23:21:00,
2013-02-06 18:32:00,42.0,21.0,30.34,NNW,333,2.0,-999.0,43,-99.99,,,-99.99,,2013-02-06 23:32:00,
2013-02-06 18:42:00,42.0,21.0,30.34,NNW,333,2.0,-999.0,43,-99.99,,,-99.99,,2013-02-06 23:42:00,
2013-02-06 18:52:00,41.0,21.0,30.34,NNW,333,1.0,-999.0,45,-99.99,,,-99.99,,2013-02-06 23:52:00,
2013-02-06 19:02:00,40.0,22.0,30.35,NNW,341,2.0,-999.0,48,-99.99,,,-99.99,,2013-02-07 00:02:00,
2013-02-06 19:11:00,40.0,22.0,30.35,NNW,341,2.0,-999.0,48,-99.99,,,-99.99,,2013-02-07 00:11:00,
2013-02-06 19:22:00,39.0,23.0,30.35,NW,318,5.0,-999.0,52,-99.99,,,-99.99,,2013-02-07 00:22:00,
2013-02-06 19:32:00,38.0,23.0,30.35,NNW,329,2.0,-999.0,55,-99.99,,,-99.99,,2013-02-07 00:32:00,
2013-02-06 19:42:00,38.0,23.0,30.35,NNW,329,2.0,-999.0,55,-99.99,,,-99.99,,2013-02-07 00:42:00,
2013-02-06 19:52:00,37.0,24.0,30.36,NNW,329,0.0,-999.0,58,-99.99,,,-99.99,,2013-02-07 00:52:00,
2013-02-06 20:01:00,35.0,25.0,30.37,NNW,329,1.0,-999.0,66,-99.99,,,-99.99,,2013-02-07 01:01:00,
2013-02-06 20:11:00,35.0,25.0,30.37,NNW,329,1.0,-999.0,66,-99.99,,,-99.99,,2013-02-07 01:11:00,
2013-02-06 20:21:00,35.0,25.0,30.37,NNW,329,1.0,-999.0,66,-99.99,,,-99.99,,2013-02-07 01:21:00,
2013-02-06 20:32:00,34.0,24.0,30.36,NNW,329,1.0,-999.0,67,-99.99,,,-99.99,,2013-02-07 01:32:00,
2013-02-06 20:42:00,34.0,24.0,30.36,NNW,329,1.0,-999.0,67,-99.99,,,-99.99,,2013-02-07 01:42:00,
2013-02-06 20:52:00,33.0,24.0,30.35,NNW,329,2.0,-999.0,68,-99.99,,,-99.99,,2013-02-07 01:52:00,
2013-02-06 21:02:00,33.0,25.0,30.35,NNW,330,4.0,-999.0,72,-99.99,,,-99.99,,2013-02-07 02:02:00,
2013-02-06 21:11:00,33.0,25.0,30.35,NNW,330,4.0,-999.0,72,-99.99,,,-99.99,,2013-02-07 02:11:00,
2013-02-06 21:21:00,33.0,24.0,30.35,NNW,330,0.0,-999.0,69,-99.99,,,-99.99,,2013-02-07 02:21:00,
2013-02-06 21:32:00,32.0,24.0,30.35,NNW,330,2.0,-999.0,72,-99.99,,,-99.99,,2013-02-07 02:32:00,
2013-02-06 21:42:00,32.0,24.0,30.35,NNW,330,2.0,-999.0,72,-99.99,,,-99.99,,2013-02-07 02:42:00,
2013-02-06 21:51:00,32.0,24.0,30.35,NNW,330,2.0,-999.0,72,-99.99,,,-99.99,,2013-02-07 02:51:00,
2013-02-06 22:02:00,31.0,24.0,30.35,East,96,1.0,-999.0,74,-99.99,,,-99.99,,2013-02-07 03:02:00,
2013-02-06 22:11:00,31.0,24.0,30.35,East,96,1.0,-999.0,74,-99.99,,,-99.99,,2013-02-07 03:11:00,
2013-02-06 22:21:00,31.0,24.0,30.36,ENE,57,1.0,-999.0,76,-99.99,,,-99.99,,2013-02-07 03:21:00,
2013-02-06 22:32:00,31.0,24.0,30.36,ENE,57,1.0,-999.0,76,-99.99,,,-99.99,,2013-02-07 03:32:00,
2013-02-06 22:42:00,31.0,24.0,30.36,ENE,57,1.0,-999.0,76,-99.99,,,-99.99,,2013-02-07 03:42:00,
2013-02-06 22:52:00,30.0,24.0,30.37,ESE,113,2.0,-999.0,79,-99.99,,,-99.99,,2013-02-07 03:52:00,
2013-02-06 23:01:00,29.0,24.0,30.38,ESE,113,1.0,-999.0,80,-99.99,,,-99.99,,2013-02-07 04:01:00,
2013-02-06 23:11:00,29.0,24.0,30.38,ESE,113,1.0,-999.0,80,-99.99,,,-99.99,,2013-02-07 04:11:00,
2013-02-06 23:22:00,29.0,24.0,30.39,NE,42,2.0,-999.0,80,-99.99,,,-99.99,,2013-02-07 04:22:00,
2013-02-06 23:32:00,29.0,24.0,30.40,NE,42,0.0,-999.0,80,-99.99,,,-99.99,,2013-02-07 04:32:00,
2013-02-06 23:42:00,29.0,24.0,30.40,NE,42,0.0,-999.0,80,-99.99,,,-99.99,,2013-02-07 04:42:00,
2013-02-06 23:53:00,29.0,24.0,30.40,NE,42,1.0,-999.0,80,-99.99,,,-99.99,,2013-02-07 04:53:00,